N1VL Weather Reports


Display with metric or nautical units.
time (UTC)temp
F
wind
direction
speed
MPH
gust
MPH
rain 1hr
in
rain 24hr
in
rain mn
in
humidity
%
barometer
mb
20260509180021 69 298 17.0 26.0 0.00 0.00 0.00 25 1021.4
20260509175400 69 292 16.0 26.0 0.00 0.00 0.00 24 1021.3
20260509174500 70 290 16.0 22.0 0.00 0.00 0.00 24 1021.4
20260509173600 70 302 15.0 24.0 0.00 0.00 0.00 24 1021.3
20260509172700 69 287 12.0 23.0 0.00 0.00 0.00 26 1021.4
20260509171800 67 268 13.0 23.0 0.00 0.00 0.00 24 1021.5
20260509170900 67 264 12.0 21.0 0.00 0.00 0.00 26 1021.6
20260509170001 67 273 15.0 23.0 0.00 0.00 0.00 26 1021.4
20260509165400 68 277 15.0 23.0 0.00 0.00 0.00 26 1021.5
20260509164500 68 274 14.0 23.0 0.00 0.00 0.00 26 1021.5
20260509163600 68 283 14.0 24.0 0.00 0.00 0.00 27 1021.6
20260509162700 67 272 13.0 22.0 0.00 0.00 0.00 27 1021.5
20260509161800 67 276 12.0 22.0 0.00 0.00 0.00 27 1021.5
20260509160900 66 279 14.0 22.0 0.00 0.00 0.00 28 1021.5
20260509160001 66 282 15.0 24.0 0.00 0.00 0.00 27 1021.6
20260509155400 66 285 13.0 24.0 0.00 0.00 0.00 27 1021.5
20260509154500 66 290 12.0 24.0 0.00 0.00 0.00 28 1021.5
20260509153600 65 288 13.0 21.0 0.00 0.00 0.00 30 1021.4
20260509152700 65 291 11.0 16.0 0.00 0.00 0.00 32 1021.4
20260509151800 64 295 13.0 21.0 0.00 0.00 0.00 32 1021.3
20260509150900 64 281 11.0 19.0 0.00 0.00 0.00 32 1021.2
20260509150000 63 284 11.0 19.0 0.00 0.00 0.00 34 1021.1
20260509145400 63 286 12.0 19.0 0.00 0.00 0.00 35 1021.1
20260509144500 63 288 10.0 18.0 0.00 0.00 0.00 35 1021.1
20260509143621 62 281 10.0 14.0 0.00 0.00 0.00 35 1021.1
20260509142721 61 279 8.0 15.0 0.00 0.00 0.00 36 1021.1
20260509141800 60 289 7.0 10.0 0.00 0.00 0.00 38 1021.0
20260509140900 60 287 8.0 13.0 0.00 0.00 0.00 39 1021.0
20260509140021 59 283 8.0 11.0 0.00 0.00 0.00 40 1020.9
20260509135400 58 282 8.0 13.0 0.00 0.00 0.00 41 1020.9
20260509134521 57 285 9.0 13.0 0.00 0.00 0.00 41 1020.8
20260509133600 56 288 9.0 13.0 0.00 0.00 0.00 42 1020.6
20260509132700 56 291 7.0 10.0 0.00 0.00 0.00 42 1020.4
20260509131800 55 299 6.0 13.0 0.00 0.00 0.00 42 1020.4
20260509130900 55 293 6.0 13.0 0.00 0.00 0.00 42 1020.3
20260509130000 54 282 7.0 13.0 0.00 0.00 0.00 42 1020.2
20260509125400 54 279 7.0 11.0 0.00 0.00 0.00 42 1020.1
20260509124521 54 280 7.0 14.0 0.00 0.00 0.00 41 1020.0
20260509123600 55 287 9.0 14.0 0.00 0.00 0.00 41 1019.9
20260509122721 55 287 10.0 15.0 0.00 0.00 0.00 41 1019.6
20260509121800 55 287 11.0 20.0 0.00 0.00 0.00 42 1019.5
20260509120900 55 281 12.0 20.0 0.00 0.00 0.00 42 1019.4
20260509120000 55 283 13.0 19.0 0.00 0.00 0.00 41 1019.1
20260509115400 56 282 13.0 21.0 0.00 0.00 0.00 41 1019.1
20260509114500 56 277 13.0 18.0 0.00 0.00 0.00 41 1019.1
20260509113600 57 266 9.0 16.0 0.00 0.00 0.00 40 1019.1
20260509112700 57 255 6.0 12.0 0.00 0.00 0.00 40 1019.1
20260509111800 57 260 7.0 13.0 0.00 0.00 0.00 39 1018.9
20260509110921 58 263 9.0 20.0 0.00 0.00 0.00 39 1018.9
20260509110000 58 272 11.0 20.0 0.00 0.00 0.00 38 1018.8
20260509105400 58 281 12.0 23.0 0.00 0.00 0.00 39 1018.8
20260509104521 58 285 15.0 23.0 0.00 0.00 0.00 39 1018.7
20260509103600 58 283 16.0 25.0 0.00 0.00 0.00 40 1018.4
20260509102700 58 279 13.0 23.0 0.00 0.00 0.00 40 1018.4
20260509101821 59 280 13.0 20.0 0.00 0.00 0.00 40 1018.4
20260509100900 59 279 15.0 22.0 0.00 0.00 0.00 39 1018.3
20260509100000 59 280 15.0 22.0 0.00 0.00 0.00 39 1018.1
20260509095400 59 278 15.0 24.0 0.00 0.00 0.00 40 1018.1
20260509094500 60 282 17.0 25.0 0.00 0.00 0.00 40 1017.9
20260509093600 60 276 16.0 24.0 0.00 0.00 0.00 40 1018.0
20260509092700 60 275 15.0 23.0 0.00 0.00 0.00 41 1017.9
20260509091800 60 278 15.0 24.0 0.00 0.00 0.00 42 1017.8
20260509090900 60 274 14.0 21.0 0.00 0.00 0.00 42 1017.8
20260509090000 59 281 12.0 19.0 0.00 0.00 0.00 46 1017.7
20260509085400 59 282 12.0 20.0 0.00 0.00 0.00 46 1017.7
20260509084521 58 281 13.0 20.0 0.00 0.00 0.00 46 1017.7
20260509083600 58 280 14.0 20.0 0.00 0.00 0.00 45 1017.6
20260509082721 59 280 13.0 19.0 0.00 0.00 0.00 45 1017.5
20260509081800 59 281 13.0 18.0 0.00 0.00 0.00 45 1017.5
20260509080921 60 281 14.0 19.0 0.00 0.00 0.00 42 1017.5
20260509080000 60 281 13.0 19.0 0.00 0.00 0.00 40 1017.6
20260509075400 60 282 12.0 19.0 0.00 0.00 0.00 40 1017.5
20260509074500 60 280 12.0 16.0 0.00 0.00 0.00 40 1017.6
20260509073600 60 279 11.0 15.0 0.00 0.00 0.00 40 1017.6
20260509072700 59 279 10.0 14.0 0.00 0.00 0.00 42 1017.5
20260509071821 58 288 8.0 11.0 0.00 0.00 0.00 45 1017.3
20260509070900 58 292 8.0 11.0 0.00 0.00 0.00 45 1017.1
20260509070000 58 292 7.0 10.0 0.00 0.00 0.00 44 1017.0
20260509065400 58 285 7.0 10.0 0.00 0.00 0.00 43 1016.9
20260509064521 58 293 4.0 6.0 0.00 0.00 0.00 43 1016.9
20260509063600 58 289 5.0 8.0 0.00 0.00 0.00 43 1016.9
20260509062721 58 284 6.0 8.0 0.00 0.00 0.00 45 1017.0
20260509061821 57 279 6.0 13.0 0.00 0.00 0.00 47 1017.1
20260509060900 56 287 6.0 13.0 0.00 0.00 0.00 49 1017.2
20260509060000 55 305 5.0 13.0 0.00 0.00 0.00 53 1017.5
20260509055421 57 56 1.0 5.0 0.00 0.00 0.00 46 1016.9
20260509054500 56 94 0.0 4.0 0.00 0.00 0.00 49 1016.9
20260509053600 57 94 0.0 1.0 0.00 0.00 0.00 47 1016.8
20260509052700 58 94 0.0 2.0 0.00 0.00 0.00 46 1016.7
20260509051800 60 94 2.0 5.0 0.00 0.00 0.00 44 1016.7
20260509050900 61 94 3.0 5.0 0.00 0.00 0.00 41 1016.6
20260509050000 61 106 2.0 5.0 0.00 0.00 0.00 41 1016.6
20260509045400 61 121 2.0 5.0 0.00 0.00 0.00 41 1016.6
20260509044500 61 121 3.0 5.0 0.00 0.00 0.00 42 1016.6
20260509043600 62 121 2.0 5.0 0.00 0.00 0.00 41 1016.6
20260509042700 62 121 0.0 4.0 0.00 0.00 0.00 41 1016.5
20260509041800 62 0 0.0 0.0 0.00 0.00 0.00 39 1016.4
20260509040921 63 0 0.0 0.0 0.00 0.00 0.00 39 1016.4
20260509040000 63 0 0.0 2.0 0.00 0.00 0.00 38 1016.4
20260509035400 64 0 0.0 2.0 0.00 0.00 0.00 36 1016.3
20260509034500 64 121 0.0 2.0 0.00 0.00 0.00 35 1016.4
20260509033600 65 121 0.0 5.0 0.00 0.00 0.00 33 1016.1
20260509032700 66 135 1.0 5.0 0.00 0.00 0.00 32 1016.1
20260509031800 65 178 2.0 5.0 0.00 0.00 0.00 32 1016.0
20260509030900 66 163 4.0 5.0 0.00 0.00 0.00 32 1015.9
20260509030000 66 112 1.0 5.0 0.00 0.00 0.00 32 1015.9
20260509025400 67 0 0.0 1.0 0.00 0.00 0.00 30 1015.9
20260509024521 68 298 0.0 2.0 0.00 0.00 0.00 29 1015.8
20260509023600 69 301 1.0 3.0 0.00 0.00 0.00 27 1015.8
20260509022700 71 304 2.0 4.0 0.00 0.00 0.00 25 1015.8
20260509021800 72 302 1.0 2.0 0.00 0.00 0.00 24 1015.7
20260509020921 72 302 1.0 6.0 0.00 0.00 0.00 24 1015.7
20260509020021 74 294 4.0 6.0 0.00 0.00 0.00 24 1015.8
20260509015400 75 284 3.0 6.0 0.00 0.00 0.00 23 1015.8
20260509014500 76 283 3.0 8.0 0.00 0.00 0.00 23 1015.7
20260509013621 76 289 6.0 11.0 0.00 0.00 0.00 22 1015.8
20260509012700 76 278 7.0 9.0 0.00 0.00 0.00 23 1015.7
20260509011800 76 274 7.0 12.0 0.00 0.00 0.00 22 1015.9
20260509010900 77 295 9.0 16.0 0.00 0.00 0.00 22 1015.9
20260509010021 76 299 11.0 18.0 0.00 0.00 0.00 24 1015.9
20260509005400 77 299 13.0 21.0 0.00 0.00 0.00 22 1015.9
20260509004500 76 288 14.0 21.0 0.00 0.00 0.00 23 1015.9
20260509003621 77 291 13.0 23.0 0.00 0.00 0.00 22 1015.9
20260509002700 77 318 13.0 24.0 0.00 0.00 0.00 23 1015.9
20260509001800 77 312 15.0 24.0 0.00 0.00 0.00 22 1015.9
20260509000900 78 294 11.0 23.0 0.00 0.00 0.00 23 1016.0
20260509000000 78 286 12.0 19.0 0.00 0.00 0.00 23 1016.0
20260508235400 78 294 12.0 23.0 0.00 0.00 0.00 22 1016.0
20260508234521 78 290 12.0 22.0 0.00 0.00 0.00 23 1016.0
20260508233600 78 296 14.0 24.0 0.00 0.00 0.00 23 1016.0
20260508232700 78 307 16.0 24.0 0.00 0.00 0.00 22 1016.0
20260508231800 77 288 12.0 22.0 0.00 0.00 0.00 23 1016.1
20260508230900 78 296 15.0 22.0 0.00 0.00 0.00 23 1016.2
20260508230000 77 288 14.0 26.0 0.00 0.00 0.00 24 1016.3
20260508225400 78 310 16.0 26.0 0.00 0.00 0.00 24 1016.2
20260508224500 77 299 16.0 26.0 0.00 0.00 0.00 23 1016.3
20260508223621 78 302 14.0 26.0 0.00 0.00 0.00 24 1016.6
20260508222700 78 304 18.0 26.0 0.00 0.00 0.00 24 1016.6
20260508221800 78 297 15.0 24.0 0.00 0.00 0.00 23 1016.7
20260508220900 77 284 14.0 25.0 0.00 0.00 0.00 24 1016.8
20260508220000 77 284 15.0 22.0 0.00 0.00 0.00 25 1016.8
20260508215400 77 288 17.0 27.0 0.00 0.00 0.00 24 1016.9
20260508214500 78 294 16.0 27.0 0.00 0.00 0.00 24 1017.0
20260508213600 78 304 16.0 27.0 0.00 0.00 0.00 24 1017.1
20260508212700 77 293 17.0 27.0 0.00 0.00 0.00 24 1017.2
20260508211800 78 306 17.0 24.0 0.00 0.00 0.00 25 1017.4
20260508210900 77 287 17.0 26.0 0.00 0.00 0.00 24 1017.4
20260508210021 76 286 16.0 27.0 0.00 0.00 0.00 25 1017.5
20260508205400 76 295 17.0 30.0 0.00 0.00 0.00 25 1017.5
20260508204500 77 301 19.0 30.0 0.00 0.00 0.00 25 1017.6
20260508203600 76 305 19.0 29.0 0.00 0.00 0.00 24 1017.5
20260508202700 77 306 17.0 24.0 0.00 0.00 0.00 25 1017.7
20260508201800 76 310 19.0 33.0 0.00 0.00 0.00 26 1017.8
20260508200900 76 311 21.0 33.0 0.00 0.00 0.00 25 1017.8
20260508200000 76 303 18.0 28.0 0.00 0.00 0.00 24 1018.0
20260508195400 76 300 17.0 27.0 0.00 0.00 0.00 26 1018.1
20260508194521 76 292 17.0 25.0 0.00 0.00 0.00 25 1018.1
20260508193621 77 295 16.0 26.0 0.00 0.00 0.00 26 1018.1
20260508192721 76 302 14.0 26.0 0.00 0.00 0.00 26 1018.0
20260508191800 76 306 16.0 25.0 0.00 0.00 0.00 26 1018.4
20260508190900 76 307 14.0 22.0 0.00 0.00 0.00 26 1018.4
20260508190000 76 307 12.0 21.0 0.00 0.00 0.00 27 1018.7
20260508185400 77 303 13.0 20.0 0.00 0.00 0.00 28 1018.7
20260508184500 57 135 1.0 2.0 0.00 0.00 0.00 53 1018.8
20260508183621 57 135 1.0 2.0 0.00 0.00 0.00 53 1018.9
20260508182700 57 135 1.0 2.0 0.00 0.00 0.00 53 1019.0
20260508181800 57 135 1.0 2.0 0.00 0.00 0.00 53 1019.1
20260508180900 57 135 1.0 2.0 0.00 0.00 0.00 53 1019.1